Total_Precipitation_Accumulation
0.11 0.08 0.06 0.04 0.03 0.02 0.01 0.00 0.00 0.00 0.00 0.00 0.00 0.00 0.00 0.00 0.00 0.00 0.00 0.00 0.00 0.00 0.01 0.02 0.03 0.04 0.06 0.08 0.10 0.12 0.12 0.10 0.08 0.07 0.07 0.06 0.06 0.05 0.06 0.08 0.09 0.10 0.11
0.17 0.13 0.08 0.06 0.05 0.04 0.02 0.01 0.00 0.00 0.00 0.00 0.00 0.00 0.00 0.00 0.00 0.00 0.00 0.00 0.00 0.00 0.01 0.01 0.03 0.05 0.08 0.10 0.12 0.14 0.15 0.12 0.10 0.08 0.06 0.05 0.05 0.04 0.04 0.05 0.07 0.09 0.11
0.19 0.17 0.12 0.08 0.07 0.06 0.04 0.03 0.01 0.00 0.00 0.00 0.00 0.00 0.00 0.00 0.00 0.00 0.00 0.00 0.00 0.00 0.00 0.01 0.03 0.06 0.09 0.11 0.16 0.20 0.22 0.17 0.13 0.10 0.08 0.07 0.06 0.05 0.04 0.04 0.04 0.05 0.07
0.25 0.21 0.17 0.11 0.08 0.07 0.06 0.04 0.03 0.02 0.01 0.01 0.01 0.01 0.00 0.00 0.00 0.00 0.00 0.00 0.00 0.00 0.00 0.00 0.02 0.04 0.08 0.12 0.17 0.25 0.30 0.25 0.19 0.15 0.13 0.11 0.08 0.07 0.05 0.05 0.04 0.04 0.04
0.28 0.26 0.23 0.19 0.14 0.09 0.08 0.06 0.05 0.03 0.03 0.02 0.02 0.01 0.01 0.00 0.00 0.00 0.00 0.00 0.00 0.00 0.00 0.00 0.01 0.02 0.04 0.08 0.13 0.22 0.30 0.29 0.23 0.19 0.17 0.16 0.13 0.10 0.09 0.08 0.07 0.06 0.06
0.38 0.31 0.26 0.24 0.22 0.17 0.11 0.08 0.07 0.07 0.05 0.05 0.04 0.02 0.01 0.01 0.01 0.00 0.01 0.01 0.01 0.01 0.01 0.01 0.02 0.02 0.02 0.04 0.08 0.13 0.21 0.27 0.28 0.24 0.21 0.19 0.17 0.15 0.13 0.13 0.12 0.12 0.12
0.60 0.47 0.32 0.29 0.27 0.24 0.21 0.18 0.16 0.13 0.11 0.11 0.09 0.04 0.02 0.02 0.01 0.01 0.01 0.01 0.01 0.02 0.02 0.02 0.02 0.02 0.02 0.03 0.04 0.07 0.11 0.19 0.26 0.29 0.28 0.26 0.23 0.21 0.21 0.21 0.21 0.19 0.19
0.75 0.65 0.52 0.41 0.35 0.32 0.31 0.28 0.25 0.23 0.20 0.21 0.19 0.17 0.08 0.03 0.01 0.01 0.01 0.02 0.02 0.02 0.02 0.03 0.03 0.03 0.03 0.03 0.02 0.03 0.06 0.10 0.19 0.27 0.31 0.31 0.30 0.29 0.30 0.33 0.35 0.35 0.32
0.96 0.85 0.76 0.68 0.56 0.47 0.40 0.37 0.35 0.33 0.29 0.27 0.27 0.27 0.18 0.08 0.04 0.02 0.01 0.02 0.02 0.03 0.03 0.04 0.04 0.04 0.04 0.03 0.02 0.02 0.03 0.05 0.10 0.19 0.28 0.33 0.35 0.37 0.41 0.46 0.51 0.54 0.49
1.17 1.08 1.00 0.93 0.81 0.68 0.55 0.50 0.47 0.43 0.39 0.34 0.31 0.26 0.24 0.18 0.16 0.09 0.03 0.04 0.04 0.04 0.05 0.05 0.05 0.05 0.04 0.03 0.03 0.04 0.05 0.05 0.08 0.14 0.25 0.36 0.44 0.48 0.53 0.58 0.63 0.68 0.67
1.24 1.18 1.12 1.08 0.97 0.85 0.76 0.70 0.65 0.59 0.50 0.44 0.38 0.33 0.33 0.26 0.20 0.20 0.12 0.07 0.07 0.07 0.06 0.05 0.05 0.05 0.05 0.05 0.06 0.07 0.09 0.10 0.13 0.19 0.28 0.40 0.49 0.57 0.66 0.70 0.73 0.78 0.81
1.33 1.22 1.14 1.09 1.02 0.97 0.92 0.86 0.83 0.76 0.68 0.60 0.53 0.46 0.43 0.38 0.30 0.29 0.27 0.17 0.14 0.11 0.09 0.07 0.07 0.07 0.09 0.10 0.11 0.16 0.18 0.20 0.23 0.29 0.39 0.47 0.53 0.62 0.74 0.83 0.86 0.86 0.88
1.21 1.18 1.14 1.09 1.05 1.00 0.97 0.94 0.90 0.84 0.79 0.72 0.62 0.56 0.54 0.50 0.44 0.41 0.39 0.28 0.20 0.14 0.12 0.10 0.10 0.11 0.12 0.13 0.16 0.24 0.27 0.32 0.35 0.40 0.48 0.55 0.59 0.63 0.70 0.80 0.92 1.01 1.07
1.17 1.20 1.18 1.17 1.18 1.16 1.09 1.04 0.99 0.94 0.90 0.81 0.71 0.63 0.57 0.52 0.49 0.48 0.47 0.46 0.40 0.28 0.21 0.19 0.18 0.20 0.21 0.24 0.30 0.38 0.39 0.49 0.52 0.56 0.61 0.67 0.71 0.69 0.68 0.71 0.78 0.88 0.95
1.07 1.10 1.12 1.12 1.10 1.10 1.08 1.06 1.01 0.95 0.92 0.86 0.79 0.73 0.63 0.53 0.49 0.48 0.49 0.54 0.62 0.57 0.43 0.32 0.31 0.33 0.37 0.41 0.48 0.49 0.48 0.60 0.65 0.67 0.71 0.73 0.72 0.68 0.64 0.63 0.65 0.67 0.70
0.91 0.95 0.96 0.97 0.98 0.96 0.95 0.95 0.91 0.87 0.85 0.80 0.76 0.74 0.70 0.62 0.57 0.54 0.56 0.61 0.68 0.75 0.69 0.51 0.43 0.45 0.50 0.54 0.62 0.58 0.55 0.63 0.62 0.63 0.65 0.64 0.59 0.54 0.51 0.50 0.52 0.57 0.60
0.77 0.78 0.79 0.80 0.81 0.84 0.85 0.85 0.79 0.75 0.76 0.74 0.71 0.69 0.69 0.65 0.63 0.61 0.63 0.67 0.74 0.80 0.84 0.72 0.61 0.58 0.58 0.56 0.55 0.49 0.45 0.45 0.44 0.51 0.52 0.50 0.45 0.41 0.41 0.43 0.45 0.47 0.50
0.68 0.69 0.70 0.70 0.65 0.64 0.68 0.70 0.71 0.68 0.65 0.65 0.66 0.69 0.70 0.68 0.68 0.65 0.66 0.68 0.72 0.74 0.77 0.74 0.63 0.55 0.50 0.45 0.41 0.36 0.32 0.29 0.27 0.35 0.37 0.37 0.36 0.34 0.34 0.35 0.37 0.39 0.44
0.59 0.61 0.60 0.62 0.62 0.59 0.58 0.59 0.59 0.60 0.60 0.59 0.59 0.60 0.60 0.61 0.63 0.61 0.61 0.62 0.62 0.61 0.60 0.56 0.50 0.43 0.38 0.34 0.30 0.25 0.20 0.17 0.16 0.18 0.21 0.21 0.22 0.22 0.24 0.25 0.27 0.28 0.29
0.46 0.49 0.50 0.50 0.51 0.53 0.53 0.53 0.56 0.56 0.56 0.55 0.55 0.56 0.57 0.58 0.60 0.61 0.62 0.61 0.59 0.56 0.53 0.49 0.45 0.38 0.31 0.26 0.22 0.17 0.14 0.11 0.09 0.08 0.09 0.09 0.09 0.09 0.09 0.10 0.10 0.10 0.11
0.31 0.33 0.37 0.41 0.44 0.44 0.46 0.48 0.50 0.53 0.54 0.55 0.58 0.62 0.65 0.71 0.71 0.66 0.59 0.54 0.50 0.49 0.48 0.46 0.39 0.31 0.24 0.19 0.15 0.12 0.11 0.09 0.07 0.04 0.04 0.03 0.03 0.02 0.02 0.02 0.03 0.03 0.05
0.24 0.27 0.31 0.33 0.38 0.44 0.55 0.53 0.48 0.49 0.55 0.58 0.59 0.60 0.62 0.67 0.64 0.62 0.56 0.50 0.47 0.48 0.46 0.40 0.31 0.22 0.14 0.11 0.10 0.10 0.11 0.11 0.07 0.02 0.02 0.01 0.01 0.01 0.00 0.00 0.01 0.02 0.04
0.29 0.31 0.33 0.36 0.40 0.52 0.65 0.62 0.63 0.55 0.55 0.57 0.56 0.52 0.46 0.42 0.42 0.37 0.40 0.43 0.43 0.40 0.34 0.27 0.20 0.14 0.11 0.10 0.12 0.14 0.12 0.12 0.08 0.02 0.03 0.02 0.00 0.00 0.00 0.00 0.00 0.01 0.02
0.45 0.49 0.53 0.56 0.58 0.65 0.71 0.63 0.58 0.53 0.54 0.53 0.48 0.43 0.36 0.29 0.24 0.23 0.27 0.31 0.24 0.19 0.17 0.15 0.12 0.11 0.11 0.11 0.13 0.17 0.16 0.12 0.05 0.02 0.01 0.02 0.00 0.00 0.00 0.00 0.00 0.00 0.01
0.75 0.73 0.70 0.65 0.61 0.61 0.59 0.54 0.49 0.44 0.44 0.42 0.37 0.33 0.30 0.25 0.26 0.27 0.23 0.19 0.15 0.13 0.13 0.13 0.14 0.14 0.14 0.12 0.10 0.11 0.13 0.14 0.09 0.03 0.02 0.01 0.00 0.00 0.00 0.00 0.00 0.00 0.00
0.67 0.66 0.64 0.61 0.54 0.47 0.41 0.35 0.33 0.30 0.29 0.27 0.25 0.24 0.25 0.24 0.28 0.29 0.21 0.16 0.13 0.10 0.11 0.11 0.10 0.09 0.09 0.08 0.08 0.08 0.14 0.28 0.22 0.11 0.02 0.05 0.06 0.08 0.13 0.02 0.00 0.00 0.00